sat.trackr.live / text

‹ back to catalog

GRUS-1B

NORAD 47934 · 2021-022C

PAYLOAD ACTIVE UNKNOWN

§ Identity

Operator
Country
JPN
Launch date
2021-03-22
Launch site
TYMSC
Launch vehicle
Mass (kg)
RCS (m²)

External: N2YO · Heavens-Above · Gunter

§ Orbital elements

Epoch: 2026-05-25T05:06:57.308256Z

Period
96.07 min
Inclination
97.5399°
Eccentricity
0.0016918
Mean motion
14.98915909 rev/d
Perigee alt
558.5 km
Apogee alt
582.0 km
Semi-major
6,948.4 km
B*
1.1696e-4
RAAN
29.1618°
Arg perigee
42.5841°
Mean anomaly
317.6691°
Rev number
28,245

§ Raw data

GRUS-1B1 47934U 21022C   26145.21316329  .00001360  00000+0  11696-3 0  99942 47934  97.5399  29.1618 0016918  42.5841 317.6691 14.98915909282456

JSON: /api/v1/satellites/47934 · /tle

For live sub-satellite position, see the globe view (requires WebGL).

§ Visibility from observer

Set your observer location to see the next 7 days of passes ≥ 10°. The values pass through the URL so the page stays shareable.

No JS? Fill the form by hand. The geolocation button needs JavaScript.

§ Radio — SatNOGS DB

ModeDescriptionDownlinkUplink
BPSK S-band telemetry 2.276 GHz
FM Telemetry 401.416 MHz

2 transmitters · refreshed weekly from db.satnogs.org